Philadelphia, PA

5:38 AM EDT on May 29, 2017 (GMT -0400)
Philadelphia International

Weather History for KPHL - August, 2012

Change the Weather History Date:

Monday, August 27, 2012

  Actual Average Record
Temperature  
Mean Temperature 80 °F 75 °F  
Max Temperature 88 °F 84 °F 98 °F (1948)
Min Temperature 72 °F 66 °F 51 °F (1963)
Degree Days  
Heating Degree Days 0 0  
Month to date heating degree days 0 0  
Since 1 June heating degree days 7 11  
Since 1 July heating degree days 0 0  
Cooling Degree Days 15 10  
Month to date cooling degree days 375 322  
Year to date cooling degree days 1336 1079  
Since 1 June cooling degree days 1172 988  
Growing Degree Days 30 (Base 50)    
Moisture  
Dew Point 71 °F    
Average Humidity 74    
Maximum Humidity 93    
Minimum Humidity 55    
Precipitation  
Precipitation 0.84 in 0.11 in 4.77 in (1971)
Month to date precipitation 5.20 3.11  
Year to date precipitation 20.74 27.63  
Snow  
Snow 0.00 in 0.00 in 0.00 in ()
Month to date snowfall 0.0 0.0  
Since 1 June snowfall 0.0 0.0  
Since 1 July snowfall 0.0 0.0  
Snow Depth 0.00 in    
Sea Level Pressure  
Sea Level Pressure 30.12 in    
Wind  
Wind Speed 9 mph (South)    
Max Wind Speed 29 mph    
Max Gust Speed 33 mph    
Visibility 8 miles    
Events Fog , Rain , Thunderstorm    
T = Trace of Precipitation, MM = Missing Value Source: NWS Daily Summary

Daily Weather History Graph

Daily Weather History Graph

Search for Another Location

Airport or City:

Trip Planner

Search our weather history database for the weather conditions in past years. The results will help you decide how hot, cold, wet, or windy it might be!

Date:

Astronomy

Aug. 27, 2012 Rise Set
Actual Time 6:24 AM EDT 7:39 PM EDT
Civil Twilight 5:56 AM EDT 8:07 PM EDT
Nautical Twilight 5:23 AM EDT 8:40 PM EDT
Astronomical Twilight 4:47 AM EDT 9:15 PM EDT
Moon 4:56 PM EDT (8/27) 2:06 AM EDT (8/27)
Length of Visible Light 14h 10m
Length of Day
13h 14m
Waxing Gibbous, 82% of the Moon is Illuminated
Aug 27
Waxing Gibbous
Aug 31
Full
Sep 8
Last Quarter
Sep 15
New
Sep 22
First Quarter

Hourly Weather History & Observations

Time (EDT) Temp. Heat Index Dew Point Humidity Pressure Visibility Wind Dir Wind Speed Gust Speed Precip Events Conditions
12:54 AM 73.0 °F - 68.0 °F 84% 30.19 in 10.0 mi East 6.9 mph - N/A   Overcast
1:54 AM 73.0 °F - 69.1 °F 87% 30.18 in 10.0 mi ESE 3.5 mph - N/A   Overcast
2:54 AM 73.0 °F - 69.1 °F 87% 30.16 in 10.0 mi East 4.6 mph - N/A   Mostly Cloudy
3:54 AM 73.0 °F - 69.1 °F 87% 30.15 in 10.0 mi East 4.6 mph - N/A   Mostly Cloudy
4:54 AM 72.0 °F - 69.1 °F 91% 30.15 in 10.0 mi ESE 4.6 mph - N/A   Mostly Cloudy
5:35 AM 71.6 °F - 69.8 °F 94% 30.14 in 9.0 mi East 4.6 mph - N/A   Mostly Cloudy
5:54 AM 72.0 °F - 69.1 °F 91% 30.15 in 9.0 mi East 3.5 mph - N/A   Mostly Cloudy
6:54 AM 73.0 °F - 70.0 °F 90% 30.15 in 9.0 mi East 4.6 mph - N/A   Overcast
7:14 AM 73.4 °F - 69.8 °F 88% 30.15 in 10.0 mi ESE 3.5 mph - N/A   Mostly Cloudy
7:23 AM 73.4 °F - 69.8 °F 88% 30.15 in 10.0 mi ESE 5.8 mph - N/A   Mostly Cloudy
7:46 AM 73.4 °F - 71.6 °F 94% 30.15 in 10.0 mi SSE 5.8 mph - 0.00 in Rain Light Rain
7:50 AM 73.4 °F - 71.6 °F 94% 30.16 in 6.0 mi SSE 5.8 mph - 0.00 in Rain Light Rain
7:54 AM 73.9 °F - 71.1 °F 91% 30.15 in 6.0 mi SSE 6.9 mph - 0.00 in Rain Light Rain
7:58 AM 73.4 °F - 71.6 °F 94% 30.16 in 4.0 mi SSE 11.5 mph 20.7 mph 0.01 in Rain Heavy Rain
8:01 AM 73.4 °F - 71.6 °F 94% 30.16 in 2.0 mi South 11.5 mph 20.7 mph 0.03 in Rain Heavy Rain
8:03 AM 73.4 °F - 69.8 °F 88% 30.15 in 4.0 mi South 8.1 mph 20.7 mph 0.04 in Rain Heavy Rain
8:06 AM 73.4 °F - 69.8 °F 88% 30.15 in 7.0 mi SSE 6.9 mph - 0.08 in Rain Heavy Rain
8:20 AM 73.4 °F - 71.6 °F 94% 30.15 in 10.0 mi SSE 5.8 mph - 0.13 in   Mostly Cloudy
8:24 AM 73.4 °F - 71.6 °F 94% 30.15 in 10.0 mi SSE 5.8 mph - 0.13 in   Mostly Cloudy
8:41 AM 75.2 °F - 73.4 °F 94% 30.15 in 8.0 mi South 8.1 mph - 0.13 in   Mostly Cloudy
8:54 AM 77.0 °F - 73.9 °F 90% 30.14 in 8.0 mi SSE 8.1 mph - 0.13 in   Mostly Cloudy
9:13 AM 78.8 °F - 73.4 °F 83% 30.15 in 8.0 mi South 10.4 mph - 0.00 in Rain Light Rain
9:18 AM 78.8 °F - 73.4 °F 83% 30.15 in 6.0 mi South 8.1 mph - 0.00 in Rain Light Rain
9:22 AM 77.0 °F - 73.4 °F 89% 30.15 in 3.0 mi South 6.9 mph - 0.00 in Rain Rain
9:25 AM 77.0 °F - 73.4 °F 89% 30.15 in 1.5 mi SW 8.1 mph - 0.00 in Rain Heavy Rain
9:27 AM 77.0 °F - 73.4 °F 89% 30.16 in 0.5 mi SW 8.1 mph - 0.00 in Fog , Rain Heavy Rain
9:37 AM 73.4 °F - 69.8 °F 88% 30.15 in 0.8 mi West 8.1 mph - 0.05 in Rain Heavy Rain
9:40 AM 73.4 °F - 71.6 °F 94% 30.15 in 2.5 mi WSW 10.4 mph - 0.12 in Rain Rain
9:45 AM 73.4 °F - 71.6 °F 94% 30.15 in 1.5 mi WNW 10.4 mph - 0.18 in Rain Heavy Rain
9:46 AM 73.4 °F - 71.6 °F 94% 30.16 in 0.5 mi WNW 10.4 mph - 0.18 in Fog , Rain Heavy Rain
9:51 AM 73.4 °F - 71.6 °F 94% 30.16 in 0.2 mi WSW 21.9 mph 28.8 mph 0.24 in Fog , Rain Heavy Rain
9:54 AM 73.0 °F - 70.0 °F 90% 30.16 in 0.2 mi SW 24.2 mph 33.4 mph 0.32 in Fog , Rain , Thunderstorm Heavy Thunderstorms and Rain
9:58 AM 73.4 °F - 68.0 °F 83% 30.14 in 1.5 mi South 9.2 mph 33.4 mph 0.23 in Rain , Thunderstorm Heavy Thunderstorms and Rain
10:01 AM 75.2 °F - 64.4 °F 69% 30.15 in 7.0 mi South 11.5 mph 33.4 mph 0.33 in Rain , Thunderstorm Light Thunderstorms and Rain
10:06 AM 73.4 °F - 68.0 °F 83% 30.15 in 10.0 mi SSE 6.9 mph 18.4 mph 0.36 in Rain , Thunderstorm Light Thunderstorms and Rain
10:21 AM 73.4 °F - 71.6 °F 94% 30.15 in 10.0 mi Calm Calm - 0.39 in   Mostly Cloudy
10:49 AM 78.8 °F - 71.6 °F 78% 30.14 in 10.0 mi WNW 5.8 mph - 0.39 in   Mostly Cloudy
10:54 AM 78.1 °F - 73.0 °F 84% 30.14 in 10.0 mi West 9.2 mph - 0.39 in   Mostly Cloudy
11:25 AM 78.8 °F - 73.4 °F 83% 30.13 in 10.0 mi SW 9.2 mph - N/A   Scattered Clouds
11:54 AM 80.1 °F 84.2 °F 73.0 °F 79% 30.12 in 10.0 mi West 8.1 mph - N/A   Scattered Clouds
12:54 PM 84.9 °F 89.4 °F 70.0 °F 61% 30.09 in 10.0 mi WSW 11.5 mph - N/A   Scattered Clouds
1:54 PM 87.1 °F 92.0 °F 70.0 °F 57% 30.06 in 10.0 mi WSW 13.8 mph - N/A   Mostly Cloudy
2:54 PM 84.9 °F 88.8 °F 69.1 °F 59% 30.05 in 10.0 mi SSE 11.5 mph 23.0 mph N/A   Mostly Cloudy
3:54 PM 84.0 °F 91.2 °F 73.9 °F 72% 30.04 in 10.0 mi South 12.7 mph - N/A   Mostly Cloudy
4:54 PM 84.9 °F 90.1 °F 71.1 °F 63% 30.01 in 10.0 mi SSW 12.7 mph - N/A   Mostly Cloudy
5:54 PM 84.9 °F 90.1 °F 71.1 °F 63% 30.00 in 10.0 mi South 12.7 mph - N/A   Scattered Clouds
6:54 PM 82.9 °F 87.0 °F 70.0 °F 65% 29.99 in 10.0 mi South 9.2 mph - N/A   Scattered Clouds
7:54 PM 81.0 °F 84.9 °F 71.1 °F 72% 29.99 in 10.0 mi South 5.8 mph - N/A   Scattered Clouds
8:54 PM 79.0 °F - 72.0 °F 79% 29.99 in 10.0 mi South 6.9 mph - N/A   Scattered Clouds
9:54 PM 78.1 °F - 73.0 °F 84% 29.99 in 10.0 mi South 8.1 mph - N/A   Scattered Clouds
10:54 PM 77.0 °F - 73.0 °F 88% 29.97 in 10.0 mi South 8.1 mph - N/A   Mostly Cloudy
11:54 PM 77.0 °F - 73.0 °F 88% 29.98 in 10.0 mi SSW 8.1 mph - N/A   Mostly Cloudy